Regional Weather Roundup
Issued by NWS

Home | Current Version | Previous Version | Graphics & Text | Print | Product List | Glossary On
Versions: 1 2 3 4 5 6 7 8 9 10 11 12 13 14 15 16 17 18 19 20 21 22 23 24 25 26 27 28 29 30 31 32 33 34 35 36 37 38 39 40 41 42 43 44 45 46 47 48 49 50
368
ASUS45 KCYS 092210
RWRWY

WYOMING REGIONAL WEATHER ROUNDUP
NATIONAL WEATHER SERVICE CHEYENNE WY
300 PM MST FRI DEC 09 2016

NOTE:  "FAIR" INDICATES FEW OR NO CLOUDS BELOW 12,000 FEET
WITH NO SIGNIFICANT WEATHER AND/OR OBSTRUCTIONS TO VISIBILITY.

WYZ001-092300-
YELLOWSTONE NATIONAL PARK

CITY           SKY/WX    TMP DP  RH WIND       PRES   REMARKS
LK YELLOWSTONE   N/A     25  23  92 VRB3      29.98F
W YELLOWSTONE  NOT AVBL

$$
WYZ002>013-054>058-071-098>099-092300-
NORTHERN WYOMING

CITY           SKY/WX    TMP DP  RH WIND       PRES   REMARKS
JACKSON        LGT SNOW  28  27  93 SW6       30.02F VSB 1   WCI  22
CODY           FAIR      10   0  63 CALM      30.07F
GREYBULL       FAIR      15   2  56 SE6       30.15F WCI   6
WORLAND        FAIR      13   3  64 CALM      30.12F
SHERIDAN       FAIR       9   0  67 W3        30.19R
BUFFALO        FAIR       7  -1  70 SE9       30.11R WCI  -7
GILLETTE       FAIR       7   1  76 CALM      30.16F
HULETT         FAIR       7   0  72 N6        30.20R WCI  -3
NEWCASTLE      FAIR      12   1  62 W3        30.20S

$$
WYZ014>020-022>026-101>103-092300-
CENTRAL WYOMING

CITY           SKY/WX    TMP DP  RH WIND       PRES   REMARKS
BIG PINEY      CLOUDY    18  14  84 NE6       30.10S WCI  10
PINEDALE       LGT SNOW  21  19  93 MISG      30.09F
DUBOIS         LGT SNOW  30  27  86 NW9       29.97R WCI  22
LANDER         FAIR      18   5  57 CALM      30.02S
RIVERTON       FAIR      21   7  54 CALM      30.04S
CASPER         CLOUDY     9   2  73 SE3       30.07F
DOUGLAS        CLOUDY    11   3  70 E3        30.13F

$$
WYZ021-027>030-104>119-092300-
SOUTHERN WYOMING

CITY           SKY/WX    TMP DP  RH WIND       PRES   REMARKS
EVANSTON       FAIR      37  28  70 SW21      30.12S WCI  26
KEMMERER       FLURRIES  34  30  86 W18G25    30.10S WCI  23
FORT BRIDGER   CLOUDY    42  31  65 W18       30.14S
ROCK SPRINGS   FAIR      37  29  72 W24       30.08S WCI  26
DIXON          CLOUDY    38  25  61 S14G24    30.18F WCI  29
RAWLINS        FAIR      39  25  57 SW24G33   30.08R WCI  28
SARATOGA       CLOUDY    37  27  65 S17G24    30.14R WCI  28
LARAMIE        PTSUNNY   36  23  59 SW8       30.08S WCI  30
CHEYENNE       FAIR      45  24  43 W15G23    30.09R
TORRINGTON     FAIR      27  10  49 E7        30.16S WCI  19
PINE BLUFFS    CLOUDY    28  21  74 NE8G17    30.13R WCI  20

$$




USA.gov is the U.S. government's official web portal to all federal, state and local government web resources and services.